Weather Roundup
Issued by NWS Springfield, MO

Home | Current Version | Previous Version | Text Only | Print | Product List | Glossary On
Versions: 1 2 3 4 5 6 7 8 9 10 11 12 13 14 15 16 17 18 19 20 21 22 23 24 25 26 27 28 29 30 31 32 33 34 35 36 37 38 39 40 41 42 43 44 45 46 47 48 49 50
000
NZUS99 KSGF 170259
HRRSGF

HOURLY WEATHER
NATIONAL WEATHER SERVICE SPRINGFIELD MO
1000 PM CDT WED APR 16 2014

......SGF CWA......

CITY           SKY/WX    TMP DP  RH WIND       PRES   REMARKS
SPRINGFIELD    CLEAR     51  29  42 S12       30.06R
JOPLIN         CLEAR     53  31  42 S10       30.03R
WEST PLAINS    PTCLDY    46  28  49 S5        30.11R
ROLLA          CLEAR     47  28  47 S13       30.08R
OSAGE BEACH    CLEAR     52  27  37 S8        30.07R

......SURROUNDING SGF CWA......

CITY           SKY/WX    TMP DP  RH WIND       PRES   REMARKS
CHANUTE        CLEAR     53  34  48 S10       29.99R
PARSONS        CLEAR     55  32  41 S7        30.00R
COFFEYVILLE    CLEAR     54  33  45 S12       30.00R
EMPORIA        PTCLDY    54  37  52 N13       30.00R
SILOAM SPRINGS CLEAR     52  28  40 S6        30.08R
HARRISON AR    CLEAR     48  29  47 SE3       30.09R
NEAR YELLVILLE CLEAR     52  25  35 CALM      30.10R

......KANSAS AND MISSOURI......

CITY           SKY/WX    TMP DP  RH WIND       PRES   REMARKS
KANSAS CTY INT CLOUDY    55  36  48 NW9       29.99R
DOWNTOWN KC    PTCLDY    59  32  36 W9        29.97R
COLUMBIA       CLEAR     51  28  41 S15       30.03R
SEDALIA        CLEAR     54  31  41 S14       30.00R
ST JOSEPH      MOCLDY    48  33  56 NW15      30.03R
ST LOUIS       PTCLDY    51  26  37 S9        30.14R
SPIRIT OF STL  CLEAR     50  24  36 S5        30.12R
KIRKSVILLE     PTCLDY    51  31  46 S15       29.95R
WICHITA        MOCLDY    61  38  42 N16G23    29.99R
TOPEKA         PTCLDY    50  35  56 NW12      30.04R
OLATHE         PTCLDY    54  32  43 SW9       29.96R

......TENNESSEE......

CITY           SKY/WX    TMP DP  RH WIND       PRES   REMARKS
MEMPHIS        PTCLDY    52  33  48 CALM      30.15R
NASHVILLE      PTCLDY    47  32  56 CALM      30.21R

......ARKANSAS.......

CITY           SKY/WX    TMP DP  RH WIND       PRES   REMARKS
FAYETTEVILLE   CLEAR     41  35  79 NW3       30.07R
FT SMITH       CLEAR     55  32  41 SE5       30.07R
LITTLE ROCK    PTCLDY    50  36  58 SE8       30.13R

......OKLAHOMA.......

CITY           SKY/WX    TMP DP  RH WIND       PRES   REMARKS
TULSA          PTCLDY    57  34  41 S12       30.02R
PONCA CITY     CLEAR     59  32  36 SE14      29.96R
MCALESTER      PTCLDY    52  34  50 SE5       30.06R
OKLAHOMA CITY  PTCLDY    57  34  41 SE15      29.99R

......IOWA............

CITY           SKY/WX    TMP DP  RH WIND       PRES   REMARKS
DES MOINES     CLOUDY    48  37  65 W18       29.89R
QUAD CITIES    CLOUDY    49  27  42 SE16G28   30.02S

......ILLINOIS........

CITY           SKY/WX    TMP DP  RH WIND       PRES   REMARKS
QUINCY         PTCLDY    49  27  42 SE13      30.03R
CHICAGO        MOCLDY    47  23  38 SE22G31   30.13S




USA.gov is the U.S. government's official web portal to all federal, state and local government web resources and services.